Location: Eenumerhoogte
(53.3420°N, 6.7843°E)
Time: 08:33:55
(UTC+00:00)

Cosmos 1766 Rocket - Pass Details

Date: 15 May 2026
Orbit: 597 x 625 km, 82.5° (Epoch: 6 June)

Event Time Altitude Azimuth Distance (km) Brightness Sun altitude
Rises 23:01:47 0° 351° (N) 2,859 8.8 -17.4°
Reaches altitude 10° 23:04:03 10° 356° (N) 1,951 7.4 -17.4°
Maximum altitude 23:08:17 56° 75° (ENE) 721 3.9 -17.5°
Enters shadow 23:10:09 30° 140° (SE) 1,077 4.3 -17.5°
